This is the latest recevied weather packets stored in our database for station/object EA6AMI-5. If no packets are shown the sender has not sent any weather packets the latest 10 day(s).
| Time | Temp. | Humidity | Pressure | Rain* | Wind** | Luminosity | Snow |
|---|---|---|---|---|---|---|---|
| 1787717344 | 25° C | 48% | 1015.1 hPa | 0 mm | - | 0 W/m² | - |
| 1787716803 | 25° C | 47% | 1015.1 hPa | 0 mm | - | 0 W/m² | - |
| 1787716443 | 25° C | 46% | 1015.1 hPa | 0 mm | - | 0 W/m² | - |
| 1787715904 | 25° C | 46% | 1015.1 hPa | 0 mm | - | 0 W/m² | - |
| 1787715364 | 25° C | 45% | 1014.7 hPa | 0 mm | - | 0 W/m² | - |
| 1787714824 | 25° C | 48% | 1014.3 hPa | 0 mm | - | 0 W/m² | - |
| 1787714283 | 25.56° C | 48% | 1014.2 hPa | 0 mm | - | 0 W/m² | - |
| 1787713743 | 25.56° C | 43% | 1014.1 hPa | 0 mm | - | 0 W/m² | - |
| 1787713204 | 25.56° C | 45% | 1014.1 hPa | 0 mm | - | 0 W/m² | - |
| 1787712843 | 25.56° C | 48% | 1014.1 hPa | 0 mm | - | 0 W/m² | - |
| 1787712304 | 25.56° C | 49% | 1013.8 hPa | 0 mm | - | 0 W/m² | - |
| 1787711764 | 25.56° C | 50% | 1013.6 hPa | 0 mm | - | 0 W/m² | - |
| 1787711223 | 25.56° C | 51% | 1013.9 hPa | 0 mm | - | 0 W/m² | - |
| 1787710683 | 26.11° C | 44% | 1013.7 hPa | 0 mm | - | 0 W/m² | - |
| 1787710143 | 25.56° C | 48% | 1014.7 hPa | 0 mm | - | 0 W/m² | - |
| 1787709604 | 25.56° C | 51% | 1014.2 hPa | 0 mm | - | 0 W/m² | - |
| 1787709243 | 25.56° C | 52% | 1013.7 hPa | 0 mm | - | 0 W/m² | - |
| 1787708703 | 26.11° C | 49% | 1014.3 hPa | 0 mm | - | 0 W/m² | - |
| 1787708163 | 26.11° C | 48% | 1014.7 hPa | 0 mm | - | 0 W/m² | - |
| 1787707624 | 26.11° C | 50% | 1014.6 hPa | 0 mm | - | 0 W/m² | - |
| 1787707083 | 25.56° C | 52% | 1014.2 hPa | 0 mm | - | 0 W/m² | - |
| 1787706543 | 25.56° C | 57% | 1013.3 hPa | 0 mm | - | 0 W/m² | - |
| 1787706003 | 26.11° C | 51% | 1014.5 hPa | 0 mm | - | 0 W/m² | - |
| 1787705644 | 25.56° C | 55% | 1015.4 hPa | 0 mm | - | 0 W/m² | - |
| 1787705103 | 25.56° C | 51% | 1014.8 hPa | 0 mm | - | 0 W/m² | - |
* Rain latest hour (hover to see other rain measurements)
** Current wind speed in m/s (hover to see current wind gust speed)